[Date Prev][Date Next][Thread Prev][Thread Next] - [Date Index][Thread Index][Author Index]
2 Line ISS Keps 4-10
- Subject: [sarex] 2 Line ISS Keps 4-10
- From: "Dave Larsen PhD" <doc@xxxxxxxxxxx>
- Date: Sun, 10 Apr 2005 06:54:25 -0700
ISS
1 25544U 98067A 05100.47717675 .00021068 00000-0 16924-3 0 2119
2 25544 051.6454 247.4695 0006196 356.4923 109.2400 15.70920063365034
----
Via the sarex mailing list at AMSAT.ORG courtesy of AMSAT-NA.
To unsubscribe, send "unsubscribe sarex" to Majordomo@amsat.org
AMSAT Home